Location: Newark
(50.0306°N, 2.3272°E)
Time: 02:04:55
(UTC+00:00)

Vanguard 1 Rocket - Pass Details

Date: 17 December 2019
Orbit: 650 x 4226 km, 34.3° (Epoch: 19 January)

Event Time Altitude Azimuth Distance (km) Brightness Sun altitude
Rises 20:04:49 0° 243° (WSW) 8,322 12.9 -39.6°
Reaches altitude 10° 20:11:27 10° 238° (WSW) 7,010 12.3 -40.7°
Enters shadow 20:30:09 42° 181° (S) 3,532 10.1 -43.6°
Maximum altitude 20:30:33 42° 178° (S) 3,492 - -43.7°
Drops below altitude 10° 20:41:32 10° 113° (ESE) 4,148 - -45.3°
Sets 20:44:20 0° 105° (ESE) 4,774 - -45.8°
